Home > Weather > Al Khor > Past weeks

Flag for Qatar Weather for the Past 2 Weeks in Al Khor, Qatar

Now
86 °F

Clear.


Feels Like: 84 °F
Forecast: 79 / 98 °F
Wind: 5 mph from North

Location: Doha International Airport

Current Time: May 5, 2016 at 2:02:50 AM

Latest Report: May 5, 2016 at 1:00 AM


Visibility: 10 mi

Pressure: 29.68 "Hg

Humidity: 31%

Dew Point: 52 °F

Location of Al KhorLocation

Historic Weather in Al Khor — Graph

°F

Al Khor Temperature Yesterday

Maximum temperature yesterday: 99 °F (at 9:00 AM)
Minimum temperature yesterday: 86 °F (at 9:00 PM)
Average temperature yesterday: 92 °F

High & Low Weather Summary for the Past Weeks

 TemperatureHumidityPressure
High104 °F (May 3, 12:00 PM)70% (Apr 26, 2:00 AM)30.01 "Hg (Apr 26, 2:00 AM)
Low75 °F (May 2, 4:30 AM)4% (Apr 23, 10:00 AM)29.65 "Hg (Apr 24, 3:00 PM)
Average87 °F33%29.80 "Hg
* Reported Apr 19 9:00 PM — May 4 9:00 PM, Al Khor, Weather by CustomWeather, © 2016

Note: Actual official high and low records may vary slightly from our data, if they occured in-between our weather recording intervals... More about our weather records

Advertising

Al Khor Weather History for the Previous 24 Hours

Scroll right to see more
 ConditionsComfort  
Time TempWeatherWind HumidityBarometerVisibility
9:00 PM
Wed, May 4
86 °FPassing clouds.3 mph46%29.74 "HgN/A
8:00 PM88 °FClear.7 mph49%29.71 "Hg10 mi
7:00 PM90 °FClear.6 mph43%29.71 "Hg10 mi
6:30 PM90 °FClear.5 mph38%29.71 "Hg10 mi
6:00 PM91 °FSunny.6 mph34%29.68 "Hg10 mi
5:30 PM91 °FSunny.7 mph32%29.68 "Hg10 mi
5:00 PM93 °FSunny.9 mph26%29.68 "Hg10 mi
4:30 PM95 °FClear.8 mph22%29.68 "Hg5 mi
4:00 PM93 °FClear.8 mph32%29.68 "Hg5 mi
3:30 PM91 °FClear.8 mph38%29.68 "Hg5 mi
2:00 PM97 °FSunny.8 mph28%29.68 "Hg10 mi
1:00 PM97 °FSunny.8 mph28%29.71 "Hg10 mi
12:00 PM97 °FSunny.7 mph28%29.74 "Hg10 mi
11:00 AM95 °FSunny.10 mph34%29.77 "Hg10 mi
10:00 AM97 °FClear.9 mph25%29.77 "Hg5 mi
9:00 AM99 °FClear.5 mph14%29.77 "Hg4 mi
8:00 AM97 °FClear.3 mph14%29.74 "Hg5 mi
7:30 AM95 °FClear.5 mph15%29.74 "Hg6 mi
7:00 AM91 °FClear.5 mph18%29.71 "Hg6 mi
6:30 AM90 °FPassing clouds.5 mph21%29.71 "HgN/A
6:00 AM90 °FPassing clouds.5 mph20%29.71 "HgN/A
5:00 AM88 °FPassing clouds.3 mph22%29.68 "HgN/A
4:30 AM88 °FPassing clouds.5 mph22%29.68 "HgN/A
4:00 AM88 °FPassing clouds.6 mph24%29.68 "HgN/A
3:30 AM88 °FPassing clouds.5 mph25%29.68 "HgN/A
2:00 AM90 °FClear.6 mph27%29.68 "Hg10 mi
Weather by CustomWeather, © 2016

See weather overviewHow to use our weather pages